Location: Beuerbach
(48.1459°N, 10.9174°E)
Time: 01:19:19
(UTC+00:00)

Meteor 1-21 - Pass Details

Date: 09 August 2024
Orbit: 845 x 885 km, 81.2° (Epoch: 09 September)

Event Time Altitude Azimuth Distance (km) Brightness Sun altitude
Rises 02:21:53 0° 332° (NNW) 3,417 7.6 -14.6°
Reaches altitude 10° 02:25:29 10° 309° (NW) 2,477 6.6 -14.2°
Maximum altitude 02:28:15 14° 279° (W) 2,199 6.0 -13.8°
Enters shadow 02:29:41 13° 262° (W) 2,278 6.0 -13.7°
